Hutchinson Municipal Airport Hutchinson US
ICAO: KHUT
IATA: HUT
Category: Medium
Scheduled Services: No

Elevation: 1543 ft
TransAlt. 18000 ft.

Airport Communications:
WICHITA APP DEP:125.5
ATIS:124.25
CTAF:118.5
GND:121.9
WICHITA RDO:122.05
TWR:118.5
UNICOM:122.95

KHUT Zoom In..

If you have problems with the map follow the link
https://www.worldairports.se/pages/airport.php?
ICAO=KHUT

Runways:

(A) RW 04 length 6000 ft width 100 ft
---- / hdg 36

(B) RW 13 length 7004 ft width 100 ft
ILS 110.10 / hdg 132

(C) RW 17 length 4252 ft width 75 ft
---- / hdg 171

(D) RW 22 length 6000 ft width 100 ft
---- / hdg 216

(E) RW 31 length 7004 ft width 100 ft
---- / hdg 312

(F) RW 35 length 4252 ft width 75 ft
---- / hdg 351

Location; KHUT
Day. 08 / Time. 18.52 Zulu
* Altimeter: 29.71
* Temperature: 09° c. 48.2°f.
* Wind from: 220° Speed 03 kn.
Dewpoint: 02° c.
Visibility: 10 Statute Miles.
Clouds: Clear (automated report).

KHUT 081852Z 22003KT 10SM CLR 09/02 A2971 RMK AO2 SLP059 T00890022


Wind From 220°
Speed 03 kn.

 
 
jpsmedia worldairports.se 2019   terms of use